TimeEDT,TemperatureF,Dew PointF,Humidity,Sea Level PressureIn,VisibilityMPH,Wind Direction,Wind SpeedMPH,Gust SpeedMPH,PrecipitationIn,Events,Conditions,WindDirDegrees,DateUTC
12:51 AM,37.9,21.9,53,29.90,10.0,West,4.6,-,N/A,,Overcast,280,2012-11-02 04:51:00
1:51 AM,37.0,23.0,57,29.88,10.0,West,5.8,-,N/A,,Overcast,270,2012-11-02 05:51:00
2:51 AM,39.0,25.0,57,29.87,10.0,West,11.5,-,N/A,,Overcast,280,2012-11-02 06:51:00
3:51 AM,39.0,26.1,60,29.86,10.0,West,6.9,-,N/A,,Overcast,280,2012-11-02 07:51:00
4:51 AM,39.0,23.0,53,29.84,10.0,West,8.1,-,N/A,,Overcast,280,2012-11-02 08:51:00
5:51 AM,37.9,23.0,55,29.85,10.0,WSW,3.5,-,N/A,,Overcast,240,2012-11-02 09:51:00
6:51 AM,37.9,23.0,55,29.85,10.0,West,3.5,-,N/A,,Overcast,260,2012-11-02 10:51:00
7:51 AM,37.0,24.1,59,29.86,10.0,WSW,4.6,-,N/A,,Overcast,250,2012-11-02 11:51:00
8:51 AM,37.9,25.0,60,29.87,10.0,West,4.6,-,N/A,,Overcast,280,2012-11-02 12:51:00
9:51 AM,39.9,25.0,55,29.90,10.0,NW,8.1,-,N/A,,Overcast,310,2012-11-02 13:51:00
10:51 AM,39.9,25.0,55,29.92,10.0,NNW,12.7,-,N/A,,Overcast,330,2012-11-02 14:51:00
11:51 AM,41.0,25.0,53,29.94,10.0,NW,9.2,-,N/A,,Mostly Cloudy,320,2012-11-02 15:51:00
12:51 PM,42.1,23.0,47,29.94,10.0,WNW,9.2,20.7,N/A,,Clear,300,2012-11-02 16:51:00
1:51 PM,43.0,23.0,45,29.93,10.0,NW,13.8,21.9,N/A,,Clear,320,2012-11-02 17:51:00
2:51 PM,44.1,23.0,43,29.92,10.0,NW,15.0,18.4,N/A,,Clear,310,2012-11-02 18:51:00
3:51 PM,45.0,24.1,44,29.92,10.0,West,13.8,18.4,N/A,,Clear,280,2012-11-02 19:51:00
4:51 PM,45.0,24.1,44,29.94,10.0,NW,9.2,18.4,N/A,,Clear,320,2012-11-02 20:51:00
5:51 PM,44.1,25.0,47,29.96,10.0,NW,9.2,-,N/A,,Clear,310,2012-11-02 21:51:00
6:51 PM,42.1,25.0,51,29.99,10.0,NW,6.9,-,N/A,,Clear,320,2012-11-02 22:51:00
7:51 PM,41.0,24.1,51,30.01,10.0,NW,8.1,-,N/A,,Clear,310,2012-11-02 23:51:00
8:51 PM,39.0,25.0,57,30.03,10.0,NW,5.8,-,N/A,,Clear,320,2012-11-03 00:51:00
9:51 PM,37.9,26.1,62,30.04,10.0,NNW,9.2,-,N/A,,Clear,340,2012-11-03 01:51:00
10:51 PM,36.0,26.1,67,30.05,10.0,NNW,8.1,-,N/A,,Clear,340,2012-11-03 02:51:00
11:51 PM,35.1,25.0,67,30.06,10.0,NW,4.6,-,N/A,,Clear,320,2012-11-03 03:51:00